This demonstration page uses our WeatherBlox Daily Observations layout. Learn more.

Left ArrowRight Arrow

41.86663, -103.66717

Hourly Observations for November 23, 2016

Temp ( °F °C ) Dew Point ( °F °C ) Humidity (%) Winds ( mph kmh ) Pressure ( in mb ) Visibility ( mi km ) Precip ( " mm )
12:53 am 00:53 Clear 28 -2.2 26 -3.3 92 92 WNW 8 13 30.22 1023 10 16 N/A
1:53 am 01:53 Clear 27 -2.8 24 -4.4 89 89 NNW 6 9 30.22 1023 10 16 N/A
2:53 am 02:53 Clear 26 -3.3 24 -4.4 92 92 WNW 7 11 30.20 1023 10 16 N/A
3:53 am 03:53 Clear 23 -5 21 -6.1 92 92 NW 7 11 30.21 1023 10 16 N/A
4:53 am 04:53 Clear 24 -4.4 21 -6.1 88 88 NNW 8 13 30.21 1023 10 16 N/A
5:53 am 05:53 Clear 20 -6.7 17 -8.3 89 89 NW 5 7 30.23 1024 10 16 N/A
6:53 am 06:53 Clear 21 -6.1 18 -7.8 88 88 NNW 5 7 30.22 1023 10 16 N/A
7:53 am 07:53 Sunny 24 -4.4 22 -5.6 91 91 N N/A 30.22 1023 10 16 N/A
8:53 am 08:53 Sunny 31 -0.6 27 -2.8 85 85 NNE 3 6 30.20 1023 10 16 N/A
9:53 am 09:53 Sunny 37 2.8 30 -1.1 76 76 E 3 6 30.18 1022 10 16 N/A
10:53 am 10:53 Sunny 42 5.6 34 1.1 73 73 E 7 11 30.13 1020 10 16 N/A
11:53 am 11:53 Sunny 46 7.8 31 -0.6 56 56 SSE 7 11 30.08 1019 10 16 N/A
12:53 pm 12:53 Sunny 51 10.6 30 -1.1 44 44 SSW 13 20 30.03 1017 10 16 N/A
1:53 pm 13:53 Sunny 50 10 30 -1.1 46 46 S 14 22 30.02 1017 10 16 N/A
2:53 pm 14:53 Sunny 49 9.4 30 -1.1 48 48 S 6 9 30.01 1016 10 16 N/A
3:53 pm 15:53 Sunny 50 10 30 -1.1 46 46 S 9 15 30.00 1016 10 16 N/A
4:53 pm 16:53 Clear 46 7.8 29 -1.7 51 51 SSE 9 15 30.00 1016 10 16 N/A
5:53 pm 17:53 Clear 44 6.7 29 -1.7 55 55 SE 10 17 30.01 1016 10 16 N/A
6:53 pm 18:53 Clear 36 2.2 28 -2.2 73 73 ESE 8 13 30.02 1017 10 16 N/A
7:53 pm 19:53 Clear 33 0.6 27 -2.8 78 78 E 7 11 30.03 1017 10 16 N/A
8:53 pm 20:53 Clear 34 1.1 27 -2.8 76 76 E 10 17 30.02 1017 10 16 N/A
9:53 pm 21:53 Clear 29 -1.7 24 -4.4 82 82 E 8 13 30.02 1017 10 16 N/A
10:53 pm 22:53 Clear 28 -2.2 24 -4.4 85 85 ESE 7 11 29.99 1016 10 16 N/A
11:53 pm 23:53 Clear 28 -2.2 23 -5 81 81 E 7 11 29.98 1015 10 16 N/A

Powered by AerisWeather